Time,TemperatureF,DewpointF,PressureIn,WindDirection,WindDirectionDegrees,WindSpeedMPH,WindSpeedGustMPH,Humidity,HourlyPrecipIn,Conditions,Clouds,dailyrainin,SoftwareType,DateUTC
2013-06-25 00:02:00,57.0,54.0,29.64,SW,221,5.0,-999.0,90,-99.99,,,-99.99,,2013-06-25 07:02:00,
2013-06-25 00:11:00,57.0,54.0,29.64,SW,221,5.0,-999.0,90,-99.99,,,-99.99,,2013-06-25 07:11:00,
2013-06-25 00:33:00,57.0,54.0,29.64,SW,221,5.0,-999.0,90,-99.99,,,-99.99,,2013-06-25 07:33:00,
2013-06-25 00:43:00,56.0,53.0,29.64,SW,229,4.0,-999.0,90,-99.99,,,-99.99,,2013-06-25 07:43:00,
2013-06-25 00:52:00,56.0,53.0,29.64,SW,227,1.0,-999.0,91,-99.99,,,-99.99,,2013-06-25 07:52:00,
2013-06-25 01:01:00,56.0,53.0,29.64,SW,218,4.0,-999.0,91,-99.99,,,-99.99,,2013-06-25 08:01:00,
2013-06-25 01:11:00,56.0,53.0,29.64,SW,218,4.0,-999.0,91,-99.99,,,-99.99,,2013-06-25 08:11:00,
2013-06-25 01:33:00,56.0,53.0,29.64,SSW,205,1.0,-999.0,91,-99.99,,,-99.99,,2013-06-25 08:33:00,
2013-06-25 01:43:00,56.0,53.0,29.64,SSW,205,0.0,-999.0,91,-99.99,,,-99.99,,2013-06-25 08:43:00,
2013-06-25 01:53:00,56.0,53.0,29.64,SW,233,2.0,-999.0,91,-99.99,,,-99.99,,2013-06-25 08:53:00,
2013-06-25 02:01:00,56.0,54.0,29.64,SW,233,1.0,-999.0,92,-99.99,,,-99.99,,2013-06-25 09:01:00,
2013-06-25 02:12:00,56.0,54.0,29.64,SW,233,1.0,-999.0,92,-99.99,,,-99.99,,2013-06-25 09:12:00,
2013-06-25 02:21:00,56.0,53.0,29.64,SW,233,2.0,-999.0,91,-99.99,,,-99.99,,2013-06-25 09:21:00,
2013-06-25 02:33:00,56.0,53.0,29.64,SW,233,2.0,-999.0,91,-99.99,,,-99.99,,2013-06-25 09:33:00,
2013-06-25 02:43:00,56.0,53.0,29.64,SW,232,4.0,-999.0,91,-99.99,,,-99.99,,2013-06-25 09:43:00,
2013-06-25 02:53:00,56.0,54.0,29.64,WSW,241,3.0,-999.0,92,-99.99,,,-99.99,,2013-06-25 09:53:00,
2013-06-25 03:01:00,56.0,54.0,29.64,WSW,239,3.0,-999.0,93,-99.99,,,-99.99,,2013-06-25 10:01:00,
2013-06-25 03:11:00,56.0,54.0,29.64,WSW,239,3.0,-999.0,93,-99.99,,,-99.99,,2013-06-25 10:11:00,
2013-06-25 03:33:00,55.0,54.0,29.64,WSW,239,3.0,-999.0,95,-99.99,,,-99.99,,2013-06-25 10:33:00,
2013-06-25 03:42:00,55.0,54.0,29.64,WSW,239,3.0,-999.0,95,-99.99,,,-99.99,,2013-06-25 10:42:00,
2013-06-25 03:52:00,55.0,54.0,29.65,SW,234,4.0,-999.0,95,-99.99,,,-99.99,,2013-06-25 10:52:00,
2013-06-25 04:01:00,55.0,54.0,29.65,SW,235,2.0,-999.0,95,-99.99,,,-99.99,,2013-06-25 11:01:00,
2013-06-25 04:11:00,55.0,54.0,29.65,SW,235,2.0,-999.0,95,-99.99,,,-99.99,,2013-06-25 11:11:00,
2013-06-25 04:21:00,55.0,54.0,29.65,SW,235,1.0,-999.0,96,-99.99,,,-99.99,,2013-06-25 11:21:00,
2013-06-25 04:34:00,55.0,54.0,29.64,SW,235,1.0,-999.0,96,-99.99,,,-99.99,,2013-06-25 11:34:00,
2013-06-25 04:43:00,55.0,54.0,29.64,SW,235,1.0,-999.0,96,-99.99,,,-99.99,,2013-06-25 11:43:00,
2013-06-25 04:52:00,55.0,54.0,29.64,SW,235,0.0,-999.0,96,-99.99,,,-99.99,,2013-06-25 11:52:00,
2013-06-25 05:01:00,55.0,54.0,29.64,SW,235,0.0,-999.0,96,-99.99,,,-99.99,,2013-06-25 12:01:00,
2013-06-25 05:11:00,55.0,54.0,29.64,SW,235,0.0,-999.0,96,-99.99,,,-99.99,,2013-06-25 12:11:00,
2013-06-25 05:33:00,55.0,54.0,29.64,SW,235,0.0,-999.0,97,-99.99,,,-99.99,,2013-06-25 12:33:00,
2013-06-25 05:43:00,55.0,54.0,29.64,SW,235,0.0,-999.0,97,-99.99,,,-99.99,,2013-06-25 12:43:00,
2013-06-25 05:55:00,55.0,54.0,29.64,SW,235,0.0,-999.0,97,-99.99,,,-99.99,,2013-06-25 12:55:00,
2013-06-25 06:01:00,55.0,54.0,29.64,SW,235,0.0,-999.0,97,-99.99,,,-99.99,,2013-06-25 13:01:00,
2013-06-25 06:22:00,55.0,54.0,29.64,SW,235,0.0,-999.0,97,-99.99,,,-99.99,,2013-06-25 13:22:00,
2013-06-25 06:34:00,55.0,54.0,29.64,SW,235,0.0,-999.0,97,-99.99,,,-99.99,,2013-06-25 13:34:00,
2013-06-25 06:42:00,55.0,54.0,29.64,SW,235,0.0,-999.0,97,-99.99,,,-99.99,,2013-06-25 13:42:00,
2013-06-25 06:53:00,55.0,54.0,29.64,SW,235,0.0,-999.0,97,-99.99,,,-99.99,,2013-06-25 13:53:00,
2013-06-25 07:01:00,55.0,54.0,29.64,SW,235,0.0,-999.0,97,-99.99,,,-99.99,,2013-06-25 14:01:00,
2013-06-25 07:11:00,55.0,54.0,29.65,SW,235,1.0,-999.0,97,-99.99,,,-99.99,,2013-06-25 14:11:00,
2013-06-25 07:34:00,55.0,54.0,29.65,SW,235,0.0,-999.0,97,-99.99,,,-99.99,,2013-06-25 14:34:00,
2013-06-25 07:42:00,55.0,54.0,29.65,SW,235,0.0,-999.0,97,-99.99,,,-99.99,,2013-06-25 14:42:00,
2013-06-25 07:53:00,55.0,54.0,29.65,SW,235,0.0,-999.0,97,-99.99,,,-99.99,,2013-06-25 14:53:00,
2013-06-25 08:01:00,55.0,54.0,29.65,SW,235,0.0,-999.0,97,-99.99,,,-99.99,,2013-06-25 15:01:00,
2013-06-25 08:11:00,55.0,54.0,29.65,SW,235,0.0,-999.0,97,-99.99,,,-99.99,,2013-06-25 15:11:00,
2013-06-25 08:32:00,56.0,55.0,29.66,SW,235,0.0,-999.0,98,-99.99,,,-99.99,,2013-06-25 15:32:00,
2013-06-25 08:43:00,56.0,55.0,29.67,SW,226,2.0,-999.0,97,-99.99,,,-99.99,,2013-06-25 15:43:00,
2013-06-25 08:53:00,56.0,55.0,29.67,SW,228,6.0,-999.0,97,-99.99,,,-99.99,,2013-06-25 15:53:00,
2013-06-25 09:03:00,57.0,56.0,29.68,SW,232,7.0,-999.0,97,-99.99,,,-99.99,,2013-06-25 16:03:00,
2013-06-25 09:12:00,57.0,56.0,29.68,SW,232,7.0,-999.0,97,-99.99,,,-99.99,,2013-06-25 16:12:00,
2013-06-25 09:23:00,57.0,56.0,29.68,SW,217,5.0,-999.0,97,-99.99,,,-99.99,,2013-06-25 16:23:00,
2013-06-25 09:34:00,58.0,57.0,29.68,SW,226,3.0,-999.0,97,-99.99,,,-99.99,,2013-06-25 16:34:00,
2013-06-25 09:43:00,58.0,57.0,29.68,SW,226,3.0,-999.0,97,-99.99,,,-99.99,,2013-06-25 16:43:00,
2013-06-25 09:52:00,57.0,56.0,29.68,SW,223,7.0,-999.0,95,-99.99,,,-99.99,,2013-06-25 16:52:00,
2013-06-25 10:01:00,57.0,56.0,29.68,WSW,240,6.0,-999.0,95,-99.99,,,-99.99,,2013-06-25 17:01:00,
2013-06-25 10:11:00,57.0,56.0,29.68,WSW,240,6.0,-999.0,95,-99.99,,,-99.99,,2013-06-25 17:11:00,
2013-06-25 10:22:00,57.0,56.0,29.68,WSW,240,6.0,-999.0,95,-99.99,,,-99.99,,2013-06-25 17:22:00,
2013-06-25 10:33:00,60.0,57.0,29.68,South,180,8.0,-999.0,91,-99.99,,,-99.99,,2013-06-25 17:33:00,
2013-06-25 10:43:00,60.0,56.0,29.68,SW,228,8.0,-999.0,88,-99.99,,,-99.99,,2013-06-25 17:43:00,
2013-06-25 10:53:00,60.0,57.0,29.68,WSW,248,6.0,-999.0,90,-99.99,,,-99.99,,2013-06-25 17:53:00,
2013-06-25 11:02:00,60.0,56.0,29.68,WSW,245,7.0,-999.0,87,-99.99,,,-99.99,,2013-06-25 18:02:00,
2013-06-25 11:12:00,60.0,56.0,29.68,WSW,245,7.0,-999.0,87,-99.99,,,-99.99,,2013-06-25 18:12:00,
2013-06-25 11:22:00,61.0,57.0,29.67,West,259,7.0,-999.0,86,-99.99,,,-99.99,,2013-06-25 18:22:00,
2013-06-25 11:33:00,64.0,58.0,29.67,West,259,7.0,-999.0,82,-99.99,,,-99.99,,2013-06-25 18:33:00,
2013-06-25 11:44:00,64.0,58.0,29.67,West,259,7.0,-999.0,82,-99.99,,,-99.99,,2013-06-25 18:44:00,
2013-06-25 11:53:00,66.0,58.0,29.68,SW,229,8.0,-999.0,75,-99.99,,,-99.99,,2013-06-25 18:53:00,
2013-06-25 12:01:00,66.0,57.0,29.68,SW,232,6.0,-999.0,74,-99.99,,,-99.99,,2013-06-25 19:01:00,
2013-06-25 12:11:00,66.0,57.0,29.68,SW,232,6.0,-999.0,74,-99.99,,,-99.99,,2013-06-25 19:11:00,
2013-06-25 12:22:00,66.0,57.0,29.68,SW,232,6.0,-999.0,74,-99.99,,,-99.99,,2013-06-25 19:22:00,
2013-06-25 12:33:00,66.0,58.0,29.68,SW,233,7.0,-999.0,75,-99.99,,,-99.99,,2013-06-25 19:33:00,
2013-06-25 12:44:00,67.0,56.0,29.68,West,264,7.0,-999.0,68,-99.99,,,-99.99,,2013-06-25 19:44:00,
2013-06-25 12:53:00,66.0,57.0,29.69,SW,236,6.0,-999.0,72,-99.99,,,-99.99,,2013-06-25 19:53:00,
2013-06-25 13:01:00,66.0,57.0,29.69,SW,236,6.0,-999.0,72,-99.99,,,-99.99,,2013-06-25 20:01:00,
2013-06-25 13:21:00,66.0,57.0,29.69,SW,226,6.0,-999.0,72,-99.99,,,-99.99,,2013-06-25 20:21:00,
2013-06-25 13:33:00,66.0,57.0,29.69,SW,226,6.0,-999.0,72,-99.99,,,-99.99,,2013-06-25 20:33:00,
2013-06-25 13:42:00,67.0,57.0,29.69,SW,223,8.0,-999.0,70,-99.99,,,-99.99,,2013-06-25 20:42:00,
2013-06-25 13:52:00,67.0,57.0,29.69,SW,223,8.0,-999.0,70,-99.99,,,-99.99,,2013-06-25 20:52:00,
2013-06-25 14:01:00,66.0,56.0,29.69,WSW,237,7.0,-999.0,71,-99.99,,,-99.99,,2013-06-25 21:01:00,
2013-06-25 14:11:00,68.0,57.0,29.69,WSW,240,7.0,-999.0,68,-99.99,,,-99.99,,2013-06-25 21:11:00,
2013-06-25 14:22:00,69.0,59.0,29.69,WSW,242,2.0,-999.0,70,-99.99,,,-99.99,,2013-06-25 21:22:00,
2013-06-25 14:33:00,69.0,59.0,29.69,WSW,242,2.0,-999.0,70,-99.99,,,-99.99,,2013-06-25 21:33:00,
2013-06-25 14:43:00,70.0,59.0,29.69,West,263,6.0,-999.0,69,-99.99,,,-99.99,,2013-06-25 21:43:00,
2013-06-25 14:53:00,70.0,56.0,29.69,SSW,192,6.0,-999.0,61,-99.99,,,-99.99,,2013-06-25 21:53:00,
2013-06-25 15:01:00,70.0,56.0,29.69,SSW,192,6.0,-999.0,61,-99.99,,,-99.99,,2013-06-25 22:01:00,
2013-06-25 15:11:00,70.0,56.0,29.69,SSW,201,5.0,-999.0,61,-99.99,,,-99.99,,2013-06-25 22:11:00,
2013-06-25 15:22:00,71.0,56.0,29.69,SSW,194,6.0,-999.0,59,-99.99,,,-99.99,,2013-06-25 22:22:00,
2013-06-25 15:33:00,71.0,56.0,29.69,SSW,194,6.0,-999.0,59,-99.99,,,-99.99,,2013-06-25 22:33:00,
2013-06-25 15:42:00,70.0,55.0,29.69,SSE,153,4.0,-999.0,58,-99.99,,,-99.99,,2013-06-25 22:42:00,
2013-06-25 15:52:00,69.0,55.0,29.68,SSW,194,6.0,-999.0,60,-99.99,,,-99.99,,2013-06-25 22:52:00,
2013-06-25 16:01:00,69.0,55.0,29.68,SSW,194,6.0,-999.0,60,-99.99,,,-99.99,,2013-06-25 23:01:00,
2013-06-25 16:11:00,71.0,54.0,29.67,WSW,248,4.0,-999.0,56,-99.99,,,-99.99,,2013-06-25 23:11:00,
2013-06-25 16:34:00,72.0,55.0,29.67,SSW,204,7.0,-999.0,56,-99.99,,,-99.99,,2013-06-25 23:34:00,
2013-06-25 16:43:00,72.0,55.0,29.67,SW,232,6.0,-999.0,56,-99.99,,,-99.99,,2013-06-25 23:43:00,
2013-06-25 16:52:00,71.0,55.0,29.67,South,190,4.0,-999.0,57,-99.99,,,-99.99,,2013-06-25 23:52:00,
2013-06-25 17:01:00,71.0,55.0,29.67,South,190,4.0,-999.0,57,-99.99,,,-99.99,,2013-06-26 00:01:00,
2013-06-25 18:32:00,58.0,56.0,29.72,WSW,240,4.0,-999.0,93,-99.99,,,-99.99,,2013-06-26 01:32:00,
2013-06-25 18:43:00,58.0,56.0,29.72,SW,232,4.0,-999.0,92,-99.99,,,-99.99,,2013-06-26 01:43:00,
2013-06-25 18:52:00,59.0,57.0,29.73,WSW,243,5.0,-999.0,92,-99.99,,,-99.99,,2013-06-26 01:52:00,
2013-06-25 19:01:00,59.0,57.0,29.73,WSW,243,5.0,-999.0,92,-99.99,,,-99.99,,2013-06-26 02:01:00,
2013-06-25 19:11:00,59.0,57.0,29.73,WSW,244,3.0,-999.0,93,-99.99,,,-99.99,,2013-06-26 02:11:00,
2013-06-25 19:34:00,59.0,57.0,29.73,WSW,244,0.0,-999.0,94,-99.99,,,-99.99,,2013-06-26 02:34:00,
2013-06-25 19:43:00,59.0,57.0,29.73,WSW,244,0.0,-999.0,94,-99.99,,,-99.99,,2013-06-26 02:43:00,
2013-06-25 19:53:00,58.0,56.0,29.75,WSW,244,6.0,-999.0,94,-99.99,,,-99.99,,2013-06-26 02:53:00,
2013-06-25 20:01:00,58.0,56.0,29.75,WSW,244,6.0,-999.0,94,-99.99,,,-99.99,,2013-06-26 03:01:00,
2013-06-25 20:11:00,57.0,56.0,29.75,SW,227,4.0,-999.0,95,-99.99,,,-99.99,,2013-06-26 03:11:00,
2013-06-25 20:22:00,57.0,56.0,29.75,WSW,238,2.0,-999.0,96,-99.99,,,-99.99,,2013-06-26 03:22:00,
2013-06-25 20:33:00,57.0,56.0,29.75,WSW,238,2.0,-999.0,96,-99.99,,,-99.99,,2013-06-26 03:33:00,
2013-06-25 20:43:00,57.0,56.0,29.76,WSW,238,1.0,-999.0,96,-99.99,,,-99.99,,2013-06-26 03:43:00,
2013-06-25 20:52:00,57.0,56.0,29.76,SW,229,4.0,-999.0,96,-99.99,,,-99.99,,2013-06-26 03:52:00,
2013-06-25 21:01:00,57.0,56.0,29.76,SW,229,4.0,-999.0,96,-99.99,,,-99.99,,2013-06-26 04:01:00,
2013-06-25 21:12:00,57.0,56.0,29.76,SW,220,8.0,-999.0,95,-99.99,,,-99.99,,2013-06-26 04:12:00,
2013-06-25 21:21:00,57.0,56.0,29.76,SW,220,8.0,-999.0,95,-99.99,,,-99.99,,2013-06-26 04:21:00,
2013-06-25 21:33:00,57.0,56.0,29.77,WSW,244,7.0,-999.0,95,-99.99,,,-99.99,,2013-06-26 04:33:00,
2013-06-25 21:43:00,57.0,56.0,29.77,WSW,244,7.0,-999.0,95,-99.99,,,-99.99,,2013-06-26 04:43:00,
2013-06-25 21:53:00,57.0,56.0,29.78,WSW,241,7.0,-999.0,95,-99.99,,,-99.99,,2013-06-26 04:53:00,
2013-06-25 22:02:00,57.0,56.0,29.78,WSW,241,7.0,-999.0,95,-99.99,,,-99.99,,2013-06-26 05:02:00,
2013-06-25 22:11:00,56.0,55.0,29.79,WSW,238,7.0,-999.0,96,-99.99,,,-99.99,,2013-06-26 05:11:00,
2013-06-25 22:21:00,56.0,55.0,29.79,SW,233,7.0,-999.0,95,-99.99,,,-99.99,,2013-06-26 05:21:00,
2013-06-25 22:33:00,56.0,55.0,29.79,SW,233,7.0,-999.0,95,-99.99,,,-99.99,,2013-06-26 05:33:00,
2013-06-25 22:43:00,56.0,55.0,29.79,WSW,239,7.0,-999.0,95,-99.99,,,-99.99,,2013-06-26 05:43:00,
2013-06-25 22:52:00,55.0,54.0,29.80,WSW,242,5.0,-999.0,95,-99.99,,,-99.99,,2013-06-26 05:52:00,
2013-06-25 23:01:00,55.0,54.0,29.80,WSW,242,5.0,-999.0,95,-99.99,,,-99.99,,2013-06-26 06:01:00,
2013-06-25 23:11:00,55.0,54.0,29.80,SW,232,2.0,-999.0,96,-99.99,,,-99.99,,2013-06-26 06:11:00,
2013-06-25 23:22:00,55.0,54.0,29.80,SSW,210,4.0,-999.0,96,-99.99,,,-99.99,,2013-06-26 06:22:00,
2013-06-25 23:34:00,55.0,54.0,29.80,SSW,210,4.0,-999.0,96,-99.99,,,-99.99,,2013-06-26 06:34:00,
2013-06-25 23:43:00,55.0,54.0,29.81,South,188,1.0,-999.0,96,-99.99,,,-99.99,,2013-06-26 06:43:00,
2013-06-25 23:53:00,55.0,54.0,29.81,SW,232,3.0,-999.0,96,-99.99,,,-99.99,,2013-06-26 06:53:00,